Tomahawk, WI

8:00 AM CDT on September 24, 2017 (GMT -0500)
Tomahawk

Weather History for KTKV - August, 2013

Change the Weather History Date:

Monday, August 5, 2013

  Actual Average (KRHI) Record (KRHI)
Temperature  
Mean Temperature 58 °F -  
Max Temperature 71 °F 76 °F 95 °F (1947)
Min Temperature 46 °F 53 °F 35 °F (1912)
Degree Days  
Heating Degree Days 8    
Growing Degree Days 8 (Base 50)    
Moisture  
Dew Point 56 °F    
Average Humidity 90    
Maximum Humidity 96    
Minimum Humidity 74    
Precipitation  
Precipitation 0.01 in - - ()
Sea Level Pressure  
Sea Level Pressure 29.95 in    
Wind  
Wind Speed 0 mph (South)    
Max Wind Speed 6 mph    
Max Gust Speed -    
Visibility 8 miles    
Events Rain    
Averages and records for this station are not official NWS values.
T = Trace of Precipitation, MM = Missing Value Source: NWS Daily Summary

Daily Weather History Graph

Daily Weather History Graph

Search for Another Location

Airport or City:

Trip Planner

Search our weather history database for the weather conditions in past years. The results will help you decide how hot, cold, wet, or windy it might be!

Date:

Astronomy

Aug. 05, 2013 Rise Set
Actual Time 5:48 AM CDT 8:21 PM CDT
Civil Twilight 5:14 AM CDT 8:54 PM CDT
Nautical Twilight 4:32 AM CDT 9:36 PM CDT
Astronomical Twilight 3:44 AM CDT 10:24 PM CDT
Moon 4:44 AM CDT (8/5) 7:19 PM CDT (8/5)
Length of Visible Light 15h 40m
Length of Day
14h 33m
Waning Crescent, 1% of the Moon is Illuminated
Aug 5
Waning Crescent
Aug 6
New
Aug 14
First Quarter
Aug 20
Full
Aug 28
Last Quarter

Hourly Weather History & Observations

Time (CDT) Temp. Dew Point Humidity Pressure Visibility Wind Dir Wind Speed Gust Speed Precip Events Conditions
12:15 AM 51.1 °F 48.7 °F 92% 30.09 in 10.0 mi Calm Calm - N/A   Clear
12:35 AM 48.7 °F 46.6 °F 92% 30.08 in 10.0 mi Calm Calm - N/A   Clear
12:55 AM 50.4 °F 48.9 °F 95% 30.08 in 10.0 mi Calm Calm - N/A   Clear
1:15 AM 50.7 °F 48.7 °F 93% 30.07 in 10.0 mi Calm Calm - N/A   Clear
1:35 AM 48.2 °F 46.4 °F 93% 30.07 in 10.0 mi Calm Calm - N/A   Clear
1:55 AM 46.2 °F 44.4 °F 93% 30.07 in 10.0 mi Calm Calm - N/A   Clear
2:15 AM 47.5 °F 46.0 °F 95% 30.07 in 10.0 mi Calm Calm - N/A   Clear
2:35 AM 48.9 °F 47.5 °F 95% 30.06 in 10.0 mi Calm Calm - N/A   Clear
2:55 AM 50.2 °F 48.6 °F 94% 30.05 in 10.0 mi Calm Calm - N/A   Clear
3:15 AM 47.5 °F 45.7 °F 93% 30.05 in 10.0 mi Calm Calm - N/A   Clear
3:35 AM 48.0 °F 46.2 °F 93% 30.05 in 10.0 mi Calm Calm - N/A   Mostly Cloudy
3:55 AM 48.6 °F 47.1 °F 95% 30.05 in 10.0 mi Calm Calm - N/A   Overcast
4:15 AM 51.3 °F 49.5 °F 94% 30.05 in 10.0 mi Calm Calm - N/A   Mostly Cloudy
4:35 AM 52.2 °F 50.2 °F 93% 30.05 in 10.0 mi Calm Calm - N/A   Overcast
4:55 AM 52.3 °F 50.4 °F 93% 30.05 in 10.0 mi Calm Calm - N/A   Overcast
5:15 AM 52.9 °F 50.9 °F 93% 30.04 in 10.0 mi Calm Calm - N/A   Overcast
5:35 AM 53.6 °F 51.1 °F 91% 30.04 in 10.0 mi Calm Calm - N/A   Overcast
5:55 AM 53.2 °F 50.9 °F 92% 30.03 in 10.0 mi Calm Calm - N/A Rain Rain
6:15 AM 53.2 °F 51.1 °F 92% 30.01 in 5.0 mi SSE 3.5 mph - N/A Rain Rain
6:35 AM 53.6 °F 51.8 °F 94% 30.02 in 5.0 mi WNW 3.5 mph - N/A Rain Light Rain
6:55 AM 53.8 °F 52.2 °F 94% 30.00 in 4.0 mi Calm Calm - N/A Rain Rain
7:15 AM 54.5 °F 52.7 °F 94% 30.01 in 7.0 mi Calm Calm - N/A   Overcast
7:35 AM 54.5 °F 52.9 °F 94% 30.00 in 7.0 mi Calm Calm - N/A   Overcast
7:55 AM 54.7 °F 53.1 °F 94% 29.99 in 7.0 mi SE 3.5 mph - 0.01 in   Overcast
8:15 AM 55.4 °F 53.8 °F 94% 29.98 in 7.0 mi Calm Calm - N/A   Overcast
8:35 AM 56.3 °F 54.5 °F 94% 29.99 in 10.0 mi Calm Calm - N/A Rain Light Rain
8:55 AM 56.5 °F 54.3 °F 92% 29.99 in 7.0 mi Calm Calm - N/A Rain Light Rain
9:15 AM 56.7 °F 54.7 °F 93% 29.97 in 4.0 mi Calm Calm - N/A   Drizzle
9:35 AM 57.4 °F 55.4 °F 93% 29.97 in 4.0 mi Calm Calm - N/A   Drizzle
9:55 AM 57.2 °F 55.4 °F 94% 29.96 in 7.0 mi Calm Calm - N/A Rain Light Rain
10:15 AM 58.1 °F 55.8 °F 92% 29.96 in 7.0 mi Calm Calm - N/A   Overcast
10:35 AM 58.1 °F 56.1 °F 93% 29.95 in 10.0 mi Calm Calm - N/A   Overcast
10:55 AM 59.0 °F 56.5 °F 91% 29.96 in 10.0 mi Calm Calm - N/A   Overcast
11:15 AM 59.2 °F 56.8 °F 92% 29.96 in 10.0 mi Calm Calm - N/A   Overcast
11:35 AM 59.5 °F 57.2 °F 92% 29.95 in 3.0 mi Calm Calm - N/A Rain Rain
11:55 AM 59.4 °F 57.2 °F 93% 29.95 in 5.0 mi Calm Calm - N/A Rain Rain
12:15 PM 59.9 °F 58.1 °F 94% 29.94 in 4.0 mi Calm Calm - N/A Rain Light Rain
12:35 PM 61.3 °F 59.5 °F 94% 29.93 in 7.0 mi ESE 3.5 mph - N/A   Overcast
12:55 PM 62.4 °F 59.7 °F 91% 29.92 in 7.0 mi Calm Calm - N/A Rain Light Rain
1:15 PM 62.8 °F 60.1 °F 91% 29.92 in 7.0 mi Calm Calm - N/A   Overcast
1:35 PM 63.1 °F 61.0 °F 93% 29.92 in 7.0 mi Calm Calm - N/A   Drizzle
1:55 PM 65.3 °F 61.9 °F 89% 29.92 in 10.0 mi Calm Calm - N/A   Overcast
2:15 PM 66.6 °F 62.1 °F 85% 29.91 in 10.0 mi Calm Calm - N/A   Overcast
2:35 PM 68.0 °F 61.9 °F 81% 29.91 in 10.0 mi Calm Calm - N/A   Overcast
2:55 PM 67.8 °F 61.7 °F 81% 29.90 in 10.0 mi SSE 4.6 mph - N/A   Overcast
3:15 PM 67.8 °F 60.6 °F 78% 29.89 in 10.0 mi Calm Calm - N/A   Overcast
3:35 PM 67.3 °F 61.3 °F 81% 29.88 in 10.0 mi Calm Calm - N/A   Light Drizzle
3:55 PM 69.4 °F 61.5 °F 76% 29.88 in 10.0 mi SSW 3.5 mph - N/A   Overcast
4:15 PM 69.8 °F 62.1 °F 76% 29.87 in 10.0 mi Calm Calm - N/A   Overcast
4:35 PM 68.7 °F 60.8 °F 76% 29.87 in 10.0 mi Calm Calm - N/A   Overcast
4:55 PM 67.3 °F 60.1 °F 78% 29.87 in 10.0 mi Calm Calm - N/A   Overcast
5:15 PM 69.1 °F 60.6 °F 74% 29.87 in 10.0 mi SSW 5.8 mph - N/A   Overcast
5:35 PM 68.7 °F 60.1 °F 74% 29.87 in 10.0 mi SW 4.6 mph - N/A   Overcast
5:55 PM 68.0 °F 60.8 °F 78% 29.86 in 10.0 mi South 3.5 mph - N/A   Overcast
6:15 PM 69.1 °F 60.8 °F 75% 29.85 in 10.0 mi Calm Calm - N/A   Mostly Cloudy
6:35 PM 67.5 °F 60.8 °F 79% 29.86 in 10.0 mi Calm Calm - N/A   Mostly Cloudy
6:55 PM 66.9 °F 60.8 °F 81% 29.85 in 10.0 mi Calm Calm - N/A   Overcast
7:15 PM 65.8 °F 60.1 °F 82% 29.85 in 10.0 mi Calm Calm - N/A   Scattered Clouds
7:35 PM 66.2 °F 60.6 °F 82% 29.85 in 10.0 mi SSW 3.5 mph - N/A   Scattered Clouds
7:55 PM 64.4 °F 59.7 °F 85% 29.85 in 10.0 mi Calm Calm - N/A   Scattered Clouds
8:15 PM 63.1 °F 59.5 °F 88% 29.85 in 10.0 mi Calm Calm - N/A   Scattered Clouds
8:35 PM 62.4 °F 59.5 °F 90% 29.85 in 10.0 mi Calm Calm - N/A   Mostly Cloudy
8:55 PM 61.2 °F 58.6 °F 91% 29.85 in 10.0 mi Calm Calm - N/A   Scattered Clouds
9:15 PM 61.5 °F 59.4 °F 93% 29.86 in 10.0 mi Calm Calm - N/A   Mostly Cloudy
9:35 PM 60.8 °F 58.8 °F 93% 29.85 in 10.0 mi Calm Calm - N/A   Scattered Clouds
9:55 PM 60.4 °F 58.5 °F 93% 29.85 in 10.0 mi Calm Calm - N/A   Scattered Clouds
10:15 PM 59.4 °F 57.7 °F 94% 29.86 in 7.0 mi Calm Calm - N/A   Clear
10:35 PM 59.4 °F 57.9 °F 95% 29.86 in 2.0 mi Calm Calm - N/A   Scattered Clouds
10:55 PM 59.0 °F 57.4 °F 94% 29.86 in 0.8 mi Calm Calm - N/A   Mostly Cloudy
11:15 PM 59.0 °F 57.7 °F 96% 29.86 in 4.0 mi Calm Calm - N/A   Mostly Cloudy
11:35 PM 60.6 °F 59.4 °F 96% 29.86 in 7.0 mi Calm Calm - N/A   Overcast
11:55 PM 61.2 °F 59.9 °F 96% 29.87 in 7.0 mi Calm Calm - N/A   Overcast